Four Wishes — ZCNL7 — position and weather

sailwx.info

Track history (hours):
 
Tides and Currents Weather Stations Pressure Air Temp Water Temp Dewpoint Dewpoint Depression Visibility Wind Speed Wind Dir Waves Ship Positions

Four Wishes

Last reported at 2014-Aug-02 05:33 UTC. Time now 2014-Aug-02 06:33 UTC.
Position N 42°21' W 071°03'.

Length 44 m; draft 2.2 m.

Type: Pleasure craft. MMSI: 319083000.

Date/timePositionNaut miles runAvg speedWind from/ knotsBaromVisibWave heightAir tempDewpointWater temp
2014-Aug-02 05:33N 42°21' W 071°03'0 0.0
2014-Aug-02 03:23N 42°21' W 071°03'53 4.5
2014-Aug-01 15:27N 41°31' W 070°40'5 0.2
2014-Jul-31 18:13N 41°28' W 070°35'6 9.6
2014-Jul-31 17:33N 41°28' W 070°27'1110.8
2014-Jul-31 16:33N 41°25' W 070°13'10 8.3
2014-Jul-31 15:22N 41°17' W 070°06'0 0.0
2014-Jul-31 14:31N 41°17' W 070°06'0 0.0
2014-Jul-31 13:22N 41°17' W 070°06'0 0.0
2014-Jul-31 12:31N 41°17' W 070°06'0 0.0
2014-Jul-31 11:31N 41°17' W 070°06'0 0.0
2014-Jul-31 10:31N 41°17' W 070°06'0 0.0
2014-Jul-31 09:31N 41°17' W 070°06'0 0.0
2014-Jul-31 08:31N 41°17' W 070°06'0 0.0
2014-Jul-31 07:31N 41°17' W 070°06'0 0.0
2014-Jul-31 06:19N 41°17' W 070°06'0 0.0
2014-Jul-31 05:31N 41°17' W 070°06'0 0.0
2014-Jul-31 04:31N 41°17' W 070°06'0 0.0
2014-Jul-31 03:31N 41°17' W 070°06'0 0.0
2014-Jul-31 02:31N 41°17' W 070°06'0 0.0
2014-Jul-31 01:31N 41°17' W 070°06'0 0.0
2014-Jul-31 00:31N 41°17' W 070°06'0 0.0
2014-Jul-30 23:31N 41°17' W 070°06'0 0.0
2014-Jul-30 22:31N 41°17' W 070°06'0 0.0
2014-Jul-30 21:31N 41°17' W 070°06'0 0.0
2014-Jul-30 20:31N 41°17' W 070°06'0 0.0
2014-Jul-30 18:13N 41°17' W 070°06'1 1.0
2014-Jul-30 17:27N 41°18' W 070°06'9 9.7
2014-Jul-30 16:33N 41°26' W 070°01'  
2014-Jul-26 10:26N 42°02' W 070°11'0 0.0
2014-Jul-26 09:05N 42°02' W 070°11'0 0.0
2014-Jul-26 08:32N 42°02' W 070°11'0 0.0
2014-Jul-26 07:32N 42°02' W 070°11'0 0.0
2014-Jul-26 06:28N 42°02' W 070°11'0 0.0
2014-Jul-26 05:32N 42°02' W 070°11'0 0.0
2014-Jul-26 04:14N 42°02' W 070°11'0 0.0
2014-Jul-26 03:29N 42°02' W 070°11'31 3.4
2014-Jul-25 18:11N 41°35' W 069°51'910.2
2014-Jul-25 17:18N 41°26' W 069°53'7 9.1
2014-Jul-25 16:31N 41°25' W 070°02'8 2.7
2014-Jul-25 13:33N 41°17' W 070°06'0 0.0
2014-Jul-25 12:33N 41°17' W 070°06'0 0.0
2014-Jul-25 11:33N 41°17' W 070°06'0 0.0
2014-Jul-25 10:33N 41°17' W 070°06'0 0.0
2014-Jul-25 09:09N 41°17' W 070°06'0 0.0
2014-Jul-25 08:30N 41°17' W 070°06'0 0.0
2014-Jul-25 06:33N 41°17' W 070°06'0 0.0
2014-Jul-25 05:06N 41°17' W 070°06'0 0.0
2014-Jul-25 04:30N 41°17' W 070°06'0 0.0
2014-Jul-25 01:24N 41°17' W 070°06'0 0.0
2014-Jul-24 10:16N 41°17' W 070°06'0 0.0
2014-Jul-24 09:31N 41°17' W 070°06'0 0.0
2014-Jul-24 04:13N 41°17' W 070°06'0 0.0
2014-Jul-24 03:31N 41°17' W 070°06'0 0.0
2014-Jul-24 02:31N 41°17' W 070°06'0 0.0
2014-Jul-24 01:31N 41°17' W 070°06'0 0.0
2014-Jul-24 00:31N 41°17' W 070°06'0 0.0
2014-Jul-23 23:31N 41°17' W 070°06'0 0.0
2014-Jul-23 22:28N 41°17' W 070°06'1 1.0
2014-Jul-23 21:33N 41°18' W 070°06'8 8.3
2014-Jul-23 20:33N 41°25' W 070°12'1111.1
2014-Jul-23 19:33N 41°27' W 070°26'  
Track history (hours):
 
Tides and Currents Weather Stations Pressure Air Temp Water Temp Dewpoint Dewpoint Depression Visibility Wind Speed Wind Dir Waves Ship Positions

Four Wishes

Last reported at 2014-Aug-02 05:33 UTC. Time now 2014-Aug-02 06:33 UTC.
Position N 42°21' W 071°03'.

Length 44 m; draft 2.2 m.

Type: Pleasure craft. MMSI: 319083000.

Date/timePositionNaut miles runAvg speedWind from/ knotsBaromVisibWave heightAir tempDewpointWater temp
2014-Aug-02 05:33N 42°21' W 071°03'0 0.0
2014-Aug-02 03:23N 42°21' W 071°03'53 4.5
2014-Aug-01 15:27N 41°31' W 070°40'5 0.2
2014-Jul-31 18:13N 41°28' W 070°35'6 9.6
2014-Jul-31 17:33N 41°28' W 070°27'1110.8
2014-Jul-31 16:33N 41°25' W 070°13'10 8.3
2014-Jul-31 15:22N 41°17' W 070°06'0 0.0
2014-Jul-31 14:31N 41°17' W 070°06'0 0.0
2014-Jul-31 13:22N 41°17' W 070°06'0 0.0
2014-Jul-31 12:31N 41°17' W 070°06'0 0.0
2014-Jul-31 11:31N 41°17' W 070°06'0 0.0
2014-Jul-31 10:31N 41°17' W 070°06'0 0.0
2014-Jul-31 09:31N 41°17' W 070°06'0 0.0
2014-Jul-31 08:31N 41°17' W 070°06'0 0.0
2014-Jul-31 07:31N 41°17' W 070°06'0 0.0
2014-Jul-31 06:19N 41°17' W 070°06'0 0.0
2014-Jul-31 05:31N 41°17' W 070°06'0 0.0
2014-Jul-31 04:31N 41°17' W 070°06'0 0.0
2014-Jul-31 03:31N 41°17' W 070°06'0 0.0
2014-Jul-31 02:31N 41°17' W 070°06'0 0.0
2014-Jul-31 01:31N 41°17' W 070°06'0 0.0
2014-Jul-31 00:31N 41°17' W 070°06'0 0.0
2014-Jul-30 23:31N 41°17' W 070°06'0 0.0
2014-Jul-30 22:31N 41°17' W 070°06'0 0.0
2014-Jul-30 21:31N 41°17' W 070°06'0 0.0
2014-Jul-30 20:31N 41°17' W 070°06'0 0.0
2014-Jul-30 18:13N 41°17' W 070°06'1 1.0
2014-Jul-30 17:27N 41°18' W 070°06'9 9.7
2014-Jul-30 16:33N 41°26' W 070°01'  
2014-Jul-26 10:26N 42°02' W 070°11'0 0.0
2014-Jul-26 09:05N 42°02' W 070°11'0 0.0
2014-Jul-26 08:32N 42°02' W 070°11'0 0.0
2014-Jul-26 07:32N 42°02' W 070°11'0 0.0
2014-Jul-26 06:28N 42°02' W 070°11'0 0.0
2014-Jul-26 05:32N 42°02' W 070°11'0 0.0
2014-Jul-26 04:14N 42°02' W 070°11'0 0.0
2014-Jul-26 03:29N 42°02' W 070°11'31 3.4
2014-Jul-25 18:11N 41°35' W 069°51'910.2
2014-Jul-25 17:18N 41°26' W 069°53'7 9.1
2014-Jul-25 16:31N 41°25' W 070°02'8 2.7
2014-Jul-25 13:33N 41°17' W 070°06'0 0.0
2014-Jul-25 12:33N 41°17' W 070°06'0 0.0
2014-Jul-25 11:33N 41°17' W 070°06'0 0.0
2014-Jul-25 10:33N 41°17' W 070°06'0 0.0
2014-Jul-25 09:09N 41°17' W 070°06'0 0.0
2014-Jul-25 08:30N 41°17' W 070°06'0 0.0
2014-Jul-25 06:33N 41°17' W 070°06'0 0.0
2014-Jul-25 05:06N 41°17' W 070°06'0 0.0
2014-Jul-25 04:30N 41°17' W 070°06'0 0.0
2014-Jul-25 01:24N 41°17' W 070°06'0 0.0
2014-Jul-24 10:16N 41°17' W 070°06'0 0.0
2014-Jul-24 09:31N 41°17' W 070°06'0 0.0
2014-Jul-24 04:13N 41°17' W 070°06'0 0.0
2014-Jul-24 03:31N 41°17' W 070°06'0 0.0
2014-Jul-24 02:31N 41°17' W 070°06'0 0.0
2014-Jul-24 01:31N 41°17' W 070°06'0 0.0
2014-Jul-24 00:31N 41°17' W 070°06'0 0.0
2014-Jul-23 23:31N 41°17' W 070°06'0 0.0
2014-Jul-23 22:28N 41°17' W 070°06'1 1.0
2014-Jul-23 21:33N 41°18' W 070°06'8 8.3
2014-Jul-23 20:33N 41°25' W 070°12'1111.1
2014-Jul-23 19:33N 41°27' W 070°26'  

Dump ship's entire track history